Regional Weather Roundup
Issued by NWS

Home | Current Version | Previous Version | Graphics & Text | Print | Product List | Glossary On
Versions: 1 2 3 4 5 6 7 8 9 10 11 12 13 14 15 16 17 18 19 20 21 22 23 24 25 26 27 28 29 30 31 32 33 34 35 36 37 38 39 40 41 42 43 44 45 46 47 48 49 50
000
ASUS43 KLSX 031407
RWRMO

WEATHER SUMMARY FOR MISSOURI
NATIONAL WEATHER SERVICE SPRINGFIELD MO
800 AM CST TUE MAR 03 2015

NOTE: "FAIR" INDICATES FEW OR NO CLOUDS BELOW 12,000 FEET WITH NO
       SIGNIFICANT WEATHER AND/OR OBSTRUCTIONS TO VISIBILITY.
       CURRENT SKY AND/OR WEATHER CONDITIONS ARE NOT AVAILABLE FOR
       CHILLICOTHE AND FARMINGTON.

MOZ001>031-035>038-043-044-053-054-031500-
...NORTHERN AND WESTERN MISSOURI...

CITY           SKY/WX    TMP DP  RH WIND       PRES   REMARKS
KANSAS CTY INT DRIZZLE   38  37  97 SW17      29.70S WCI  28
KANSAS C DTWN  CLOUDY    41  38  89 SW16G30   29.71F
LEE`S SUMMIT   CLOUDY    38  37  97 SW20G28   29.71F FOG     WCI  28
ST JOSEPH      CLOUDY    37  36  96 SW13      29.70S FOG     WCI  29
CHILLICOTHE      N/A     35  33  92 S8        29.73F WCI  29
KIRKSVILLE     FOG       32  32 100 S10       29.72F VSB 1   WCI  24

$$
MOZ066>068-077>081-088>096-101>105-031500-
...SOUTHWEST MISSOURI...

CITY           SKY/WX    TMP DP  RH WIND       PRES   REMARKS
SPRINGFIELD    FOG       38  37  97 S16       29.84F VSB 1/2 WCI  29
JOPLIN         CLOUDY    41  40  96 SW18G26   29.86S

$$
MOZ032>034-039>042-045>050-055>058-069>072-031500-
...CENTRAL MISSOURI...

CITY           SKY/WX    TMP DP  RH WIND       PRES   REMARKS
COLUMBIA       CLOUDY    36  34  92 S15       29.76F WCI  27
JEFFERSON CITY CLOUDY    37  34  89 S7        29.81F
ROLLA          FOG       37  36  96 S17G28    29.80F VSB 1   WCI  27
SEDALIA        CLOUDY    40  36  86 SW20G35   29.76F FOG
WHITEMAN AFB   CLOUDY    37  36  96 SW20      29.74S FOG     WCI  26
WARRENSBURG    CLOUDY    36  34  93 S13       29.76F FOG     WCI  27
OSAGE BEACH    CLOUDY    37  34  87 S9        29.80F

$$
MOZ051-052-059>065-031500-
...EAST CENTRAL MISSOURI...

CITY           SKY/WX    TMP DP  RH WIND       PRES   REMARKS
ST LOUIS INTL  DRIZZLE   36  30  80 SE12      29.84F WCI  27
SPIRIT OF STL  CLOUDY    36  33  89 S10G17    29.81F WCI  28
ST CHARLES     CLOUDY    33  31  92 SE10      29.83F FOG     WCI  25

$$
MOZ072>076-082>087-097>100-106>115-031500-
...SOUTH CENTRAL AND SOUTHEAST MISSOURI...

CITY           SKY/WX    TMP DP  RH WIND       PRES   REMARKS
CAPE GIRARDEAU FOG       36  36 100 S7        30.01F VSB 1
FARMINGTON     CLOUDY    34  30  86 S13       29.94F WCI  25
POPLAR BLUFF   CLOUDY    34  30  85 SW5       30.00F FOG     WCI  30
WEST PLAINS    FOG       34  33  96 S8        29.94S VSB<1/4 WCI  27

$$



USA.gov is the U.S. government's official web portal to all federal, state and local government web resources and services.